User: anonymous
Location: Oshawa
(43.9000°N, 78.8670°W)
Time: 17:04:34
(UTC-04:00)
Language:

Cosmos 1953 Rocket - Orbit

View from above orbital plane
View from above orbital plane
View from above satellite
View from above satellite

Ground track
Ground track

The orbit data is extracted from the following two-line orbital elements,

1 19211U 88050B   14113.20637045  .00000579  00000-0  69211-4 0  2124
2 19211 082.5286 198.5212 0020677 310.5956 079.3245 14.82367012396233
Epoch (UTC): 23 April 2014 04:57:10
Eccentricity: 0.0020677
inclination: 82.5286°
perigee height: 607 km
apogee height: 636 km
right ascension of ascending node: 198.5212°
argument of perigee: 310.5956°
revolutions per day: 14.82367012
mean anomaly at epoch: 79.3245°
orbit number at epoch: 39623

The dashed part of the orbit path shows where the satellite is in the earth's shadow,  

DLR